Theta_e
286 286 285 285 285 285 285 285 285 285 285 286 286 286 286 286 283 282 283 284 285 282 283 284 283 284 285 285 286 286 286 287 288 286 287 287 287 291 295 299 301 302 304 305 307 307 306 307 307 307 307 307 307 307 307 308 308 308 308 309 308 309 309 309 310 309 308 307 307 307 307 306 305 306
285 286 286 286 285 285 285 285 285 284 284 283 284 285 285 285 284 283 282 283 286 284 281 283 284 282 283 285 285 285 285 288 288 286 286 287 287 292 294 297 299 302 304 304 306 307 306 306 305 305 305 305 306 306 305 306 307 307 308 309 310 309 309 309 309 308 307 306 306 307 307 306 305 304
285 284 285 285 285 286 285 285 285 285 284 284 283 283 283 283 283 283 283 281 284 285 285 282 283 284 283 284 284 284 284 286 288 286 285 286 289 291 292 294 296 300 301 302 304 306 306 305 305 304 304 305 305 305 305 305 306 306 306 308 309 309 308 308 307 307 306 306 306 306 306 305 304 304
284 283 283 284 284 285 285 285 285 285 285 284 284 283 283 283 282 282 281 281 281 284 285 283 282 282 283 283 282 283 284 285 288 285 285 286 288 288 288 291 294 296 299 301 303 304 305 305 304 303 303 304 304 304 304 304 304 304 304 305 307 308 308 307 306 306 306 304 304 305 304 303 303 303
281 282 281 282 283 284 283 284 284 284 285 284 284 284 283 283 283 282 281 280 282 283 283 284 284 282 282 282 282 283 283 283 284 286 285 285 285 285 286 287 291 294 297 299 301 302 304 304 304 303 302 302 302 302 303 303 302 303 303 304 305 307 306 307 306 305 305 305 303 303 304 303 303 303
281 281 281 281 282 282 282 282 283 283 284 284 284 284 283 283 283 283 281 281 281 281 283 284 283 282 282 283 281 283 283 283 283 283 284 284 284 284 285 286 286 292 295 297 299 301 302 303 304 303 301 301 302 301 302 302 301 302 302 302 303 305 305 306 305 305 304 305 304 303 303 303 303 303
279 279 280 280 281 282 281 281 281 282 282 283 283 283 284 283 283 283 283 282 281 281 282 283 283 283 282 282 283 282 283 284 284 283 283 283 284 285 284 285 285 290 293 296 298 300 301 302 302 302 302 301 300 300 300 301 301 301 301 301 302 303 304 304 304 304 304 304 304 303 302 302 303 302
279 278 279 279 279 279 279 280 280 280 281 281 282 282 282 283 283 283 283 283 282 282 281 282 282 283 282 282 281 282 282 282 282 283 283 282 283 283 284 284 284 287 291 293 295 298 299 300 300 301 301 301 300 300 299 300 300 300 300 301 302 302 302 302 302 302 302 303 302 303 303 302 302 302
278 278 278 279 279 279 278 279 279 279 279 280 281 281 281 281 282 283 283 283 283 281 281 281 282 282 282 282 281 281 281 281 281 282 282 282 282 283 283 284 284 287 290 291 293 295 297 298 299 300 301 301 300 299 299 299 299 299 299 299 300 301 301 301 300 300 301 301 301 301 302 302 301 301
278 278 278 279 279 279 278 279 279 279 279 279 279 279 280 280 281 281 281 282 281 281 281 281 281 281 280 281 282 281 281 281 281 281 281 281 281 282 282 282 283 284 285 285 288 291 294 296 298 299 300 300 300 299 299 298 298 298 297 298 298 299 300 300 300 300 300 300 300 300 301 301 301 300
278 278 278 278 279 279 279 279 279 279 279 279 279 279 279 280 280 280 280 280 281 281 281 281 281 281 281 280 281 281 281 281 281 282 281 281 281 281 282 282 283 283 284 286 288 288 289 292 293 296 298 299 299 299 298 298 298 297 297 297 298 298 299 299 299 299 299 299 299 299 299 299 300 300
278 278 278 278 278 279 279 279 279 280 279 279 279 279 279 279 279 279 279 279 279 280 280 280 280 280 280 279 279 279 278 279 279 280 280 281 282 282 282 282 283 283 283 282 283 287 288 290 291 294 296 297 298 298 298 297 296 295 296 297 298 298 298 298 298 298 298 298 298 299 299 298 298 299
278 278 278 278 279 279 281 283 283 283 283 281 279 280 280 279 279 278 279 279 279 279 279 279 280 280 280 280 279 278 278 278 280 281 281 281 282 282 282 282 283 283 282 282 282 282 283 284 285 286 288 291 294 295 296 295 294 295 296 297 297 297 297 298 298 298 297 297 298 298 298 298 298 298
277 277 278 278 281 281 282 282 283 283 284 284 283 281 281 280 279 278 278 278 278 278 278 278 279 278 279 280 280 279 280 280 280 280 280 280 281 281 281 282 282 283 282 281 280 281 282 282 283 284 285 287 290 292 293 293 294 294 296 297 297 297 297 297 297 297 297 297 296 297 297 297 297 297
276 276 277 277 278 279 280 279 281 282 283 283 283 284 284 284 282 280 279 278 278 278 277 278 279 278 278 280 281 280 280 280 280 280 281 281 281 280 279 279 282 283 283 281 281 281 281 282 281 282 284 285 287 289 290 294 295 295 296 296 296 296 297 297 297 297 296 296 296 296 296 296 296 296
274 275 275 276 277 277 277 277 278 279 281 282 282 283 283 284 285 285 282 280 280 279 278 278 278 278 279 279 280 280 280 279 279 279 280 280 280 280 280 280 280 281 283 281 281 281 282 281 281 281 282 284 285 287 290 293 295 296 296 296 296 296 296 296 296 296 295 296 296 295 295 295 295 295
273 274 274 274 275 275 277 277 276 276 276 279 281 281 281 282 283 284 285 285 283 282 281 279 279 279 279 279 280 281 281 280 279 279 279 279 280 281 281 281 282 280 282 282 281 280 282 281 280 280 282 283 284 285 290 292 293 295 296 296 295 295 296 296 296 296 295 295 296 295 295 295 294 294
271 271 272 272 272 273 274 275 275 275 276 276 276 276 276 277 279 281 282 283 283 283 282 281 281 282 282 280 281 282 282 281 279 279 279 279 280 280 281 283 283 281 282 281 281 280 281 281 280 280 281 282 282 283 287 290 292 293 295 295 295 295 295 295 295 295 295 295 295 295 295 294 294 294
270 270 271 271 271 271 272 273 274 274 274 274 274 274 274 274 275 276 277 278 279 280 280 281 281 282 283 283 283 283 283 283 283 282 281 281 281 281 282 282 283 282 282 282 282 279 283 281 280 280 281 281 281 283 286 289 291 292 293 294 295 295 295 295 295 295 295 295 295 295 294 294 294 294
269 270 270 270 270 270 271 273 276 276 274 274 273 273 274 274 275 276 279 281 282 281 280 280 280 281 282 285 284 284 284 283 283 283 282 280 280 281 280 280 281 281 281 281 281 280 281 281 280 281 281 281 281 282 282 287 290 291 292 293 294 294 295 295 295 295 295 294 295 294 294 294 294 294
269 269 270 270 270 271 271 274 276 276 276 273 273 273 273 274 274 274 276 279 281 283 284 285 285 286 287 287 287 287 288 287 284 280 279 280 280 279 279 280 280 280 280 279 281 281 280 281 279 281 279 280 280 280 281 282 287 290 291 292 293 293 294 294 294 295 295 294 295 294 294 294 294 293
268 269 271 271 269 269 269 273 275 276 275 273 273 272 272 272 273 274 275 276 277 280 281 282 283 284 286 286 287 288 288 288 288 283 279 280 281 279 280 279 280 281 281 279 281 279 279 282 279 279 278 279 279 280 280 281 282 286 289 291 292 293 293 294 294 294 295 295 294 294 294 293 293 291
268 268 269 271 271 271 272 275 276 276 275 273 273 273 272 271 271 273 274 275 275 276 276 277 279 280 282 282 282 283 286 287 287 286 284 283 281 279 280 280 280 279 280 282 281 278 278 281 279 280 276 277 279 279 280 280 280 281 283 285 288 291 292 293 294 294 294 294 294 294 294 293 293 289
267 267 268 270 273 274 274 275 275 275 276 272 272 272 271 271 271 274 274 274 274 274 275 275 277 278 280 280 280 280 281 282 284 285 285 285 283 281 280 280 280 279 280 282 281 278 279 281 278 281 279 278 277 276 279 279 280 280 281 282 283 287 290 291 292 293 293 294 294 294 294 293 293 289
267 268 268 269 272 274 274 275 275 276 276 276 273 272 271 271 273 276 273 274 276 275 276 276 276 276 277 278 279 279 280 280 281 283 284 285 285 283 281 280 280 280 282 282 284 280 278 279 278 279 278 279 279 277 275 278 279 279 280 280 281 282 284 286 288 289 292 293 294 294 294 293 293 290
268 268 268 268 271 274 275 275 275 276 276 276 274 273 276 278 278 275 275 274 274 274 275 275 276 276 277 278 278 278 279 279 280 281 282 284 285 285 284 283 281 280 281 283 286 281 280 279 279 279 278 277 277 278 275 275 277 279 280 280 281 281 283 284 285 286 288 289 290 292 292 293 293 293
268 269 269 269 273 274 275 275 276 276 277 276 275 277 278 278 278 277 274 274 273 272 272 273 273 273 275 275 277 278 279 279 280 280 281 282 283 284 285 285 284 283 284 282 283 282 282 280 281 279 278 278 277 276 275 275 274 277 278 279 280 281 282 283 284 285 286 287 287 291 293 293 293 293
269 268 268 269 273 275 276 277 277 277 277 275 277 277 277 277 276 272 271 270 270 270 270 270 271 271 273 274 276 277 279 280 280 280 281 281 282 283 283 284 284 284 284 283 282 283 282 282 281 281 281 279 277 276 275 277 275 276 275 278 279 280 282 283 283 284 285 286 286 287 287 288 289 289
269 272 275 275 276 276 276 276 276 275 274 275 275 276 276 275 272 271 271 270 270 269 269 269 270 270 272 274 275 277 279 280 281 280 280 281 281 282 283 283 283 284 284 284 282 283 283 282 282 281 280 280 279 278 279 277 275 275 276 276 275 278 280 282 283 283 284 285 285 285 285 286 286 287
275 276 276 276 276 274 273 271 270 270 270 274 275 276 275 272 271 270 269 269 268 267 268 268 268 269 271 273 274 276 277 278 279 280 278 278 279 280 280 281 281 283 283 284 283 283 283 283 282 282 280 280 280 279 279 278 275 275 276 276 277 278 279 281 281 283 283 283 284 284 285 286 285 286
268 269 270 270 273 273 275 275 275 274 274 271 270 269 268 268 268 268 268 267 267 267 267 268 269 270 271 273 273 273 274 275 278 280 279 278 278 279 280 280 280 281 283 283 284 284 283 283 283 282 280 279 280 280 280 280 278 275 275 276 277 273 275 279 280 281 282 283 283 283 283 284 283 285
268 268 271 271 270 269 268 268 268 267 267 267 268 268 268 268 269 270 271 272 270 269 270 269 270 270 271 271 272 273 274 274 276 279 278 278 277 278 278 278 278 280 280 279 279 281 282 283 283 282 282 281 279 279 280 279 279 278 274 276 276 278 278 277 278 280 281 281 281 280 281 281 281 282
270 268 267 266 266 266 265 266 266 266 267 267 268 268 268 268 268 269 268 268 268 268 269 268 269 269 270 271 272 273 273 274 276 278 278 278 277 277 278 277 278 278 278 277 276 277 277 278 277 280 282 282 282 281 279 277 278 279 276 275 276 276 277 277 278 279 280 279 278 279 279 279 280 280
270 268 267 266 266 266 265 265 265 265 265 265 266 266 269 268 268 268 268 269 269 270 269 270 270 270 270 270 271 272 273 274 276 277 279 277 278 276 276 277 277 278 278 278 275 275 275 275 274 274 273 272 273 277 280 279 277 278 277 276 275 275 276 276 277 278 279 278 278 277 277 277 278 279
267 265 263 263 263 263 263 263 263 264 264 265 265 266 267 268 268 269 269 269 270 270 270 270 270 270 270 270 272 273 274 275 276 277 278 278 277 277 277 277 277 277 277 277 275 274 274 273 274 273 272 273 274 275 276 278 278 278 277 276 276 275 275 276 276 277 277 278 278 276 276 276 276 277
263 262 261 261 262 263 263 264 264 265 265 265 266 266 266 267 268 268 268 269 269 269 269 269 269 270 270 271 272 273 274 275 275 277 277 277 277 277 277 277 277 278 278 277 275 273 273 273 273 272 271 271 271 271 274 279 278 278 277 275 275 275 275 275 275 275 276 276 277 276 274 273 273 274
261 262 262 263 263 264 264 265 265 265 265 266 266 267 267 267 268 269 269 271 270 270 270 270 270 270 271 272 273 274 274 274 274 276 276 277 277 277 276 276 277 277 277 277 275 272 273 272 273 273 272 270 269 269 272 272 274 278 276 276 274 274 274 273 273 273 274 275 275 276 275 275 273 273
260 261 261 262 262 263 263 263 264 264 264 265 265 265 266 267 268 269 270 270 270 270 270 270 270 271 272 272 272 273 274 275 276 277 277 277 276 276 276 276 276 276 276 275 273 272 273 273 273 273 273 271 270 270 271 269 267 271 276 275 273 272 274 272 272 272 272 274 274 275 276 274 273 273
259 259 259 260 260 260 260 261 262 262 263 263 264 265 266 267 268 270 270 270 269 269 270 270 270 271 272 272 273 274 274 274 274 275 276 276 276 276 276 276 276 276 275 271 271 271 272 272 273 273 273 273 272 272 274 270 269 271 275 278 276 273 273 273 272 272 272 272 272 274 273 274 275 276
258 258 258 258 258 258 259 260 261 261 262 263 264 265 266 267 269 270 269 269 268 269 270 270 271 272 273 273 274 274 274 275 275 275 275 275 275 276 276 276 276 275 273 271 269 269 270 271 272 273 273 275 273 272 272 271 269 270 272 276 279 276 273 273 272 272 270 272 272 270 269 271 269 272
257 256 257 257 257 258 258 259 260 261 262 263 264 265 266 267 268 270 270 269 270 270 270 271 271 272 272 273 274 274 274 274 275 275 274 274 274 275 275 275 274 274 272 270 270 269 269 271 272 276 272 270 270 273 271 268 266 267 268 270 277 278 276 276 274 273 270 272 271 269 269 267 268 270
256 256 256 256 257 257 258 258 259 260 261 262 263 264 265 266 267 271 272 272 272 272 272 272 272 273 273 274 274 274 274 274 274 274 274 274 274 274 274 274 273 273 272 271 270 270 271 272 272 272 270 271 271 270 269 270 268 267 267 269 271 276 277 276 275 275 273 272 269 267 266 266 267 264
256 256 256 257 257 258 258 259 259 260 261 261 262 263 264 265 267 268 269 270 271 272 272 273 273 274 274 274 274 273 273 273 273 273 273 273 274 274 273 273 273 273 272 272 271 270 269 269 269 269 270 270 270 271 270 269 268 267 267 269 270 271 273 276 276 275 275 275 274 272 270 268 266 262
256 256 256 257 257 258 258 259 259 260 261 261 262 263 263 264 265 266 267 268 268 268 270 271 273 274 274 274 274 274 274 274 274 273 273 273 273 274 273 273 273 272 272 270 268 268 268 268 269 269 269 268 270 269 269 267 266 267 267 268 269 270 270 271 273 275 275 276 274 274 273 273 272 272
257 257 257 257 258 258 259 259 260 260 261 261 262 263 263 263 264 265 265 265 266 266 267 269 270 271 272 272 273 273 274 274 274 273 273 272 272 272 272 272 272 271 269 268 267 266 267 267 268 269 268 268 268 268 268 267 266 266 266 266 266 267 267 268 268 267 268 269 273 274 274 274 274 274
Wind_Speed
4 5 5 5 6 7 7 6 5 6 5 5 5 5 7 7 10 13 12 14 10 4 7 5 4 8 8 8 8 8 8 11 12 8 9 10 10 12 20 22 22 22 23 21 20 18 18 17 16 18 18 18 18 19 19 18 17 19 18 19 23 21 21 20 20 18 19 17 16 18 17 17 16 15
4 4 4 4 5 5 6 6 6 6 6 6 6 6 6 6 10 10 12 17 8 8 2 4 5 3 7 7 7 7 8 11 12 8 9 10 10 14 19 20 21 22 23 22 21 23 20 17 17 17 18 18 20 21 21 21 21 21 21 19 19 22 21 22 22 21 22 14 16 18 18 17 17 18
4 5 5 5 5 5 5 6 6 5 5 6 6 6 5 7 8 9 9 13 10 2 9 5 6 6 5 5 6 4 5 8 10 8 8 9 12 16 13 17 19 21 23 21 20 22 25 24 21 20 20 21 21 22 22 23 22 22 22 22 20 22 24 22 18 17 18 17 20 19 18 18 17 18
5 6 6 6 6 6 4 5 5 6 5 5 6 6 6 7 7 7 8 12 18 5 9 6 5 4 7 5 4 6 6 6 9 7 8 10 13 10 9 14 19 20 22 22 22 22 23 25 25 24 23 23 24 23 23 24 24 23 23 23 22 22 18 18 17 18 21 19 20 21 21 20 19 19
5 5 6 7 7 6 5 6 6 6 6 6 6 6 6 7 6 6 8 12 16 9 5 8 7 4 3 5 5 8 7 7 7 8 8 8 8 9 8 9 16 19 21 22 23 23 22 23 24 24 25 23 24 24 24 24 24 23 23 23 23 24 24 21 22 23 23 24 22 23 23 22 21 20
10 10 9 9 7 5 6 6 6 6 6 6 6 6 6 7 7 6 8 11 11 16 4 8 5 6 3 8 3 6 8 9 6 8 8 7 8 8 8 8 9 16 20 22 23 23 24 24 24 24 25 25 23 24 24 23 22 23 23 23 21 22 23 23 23 22 24 24 25 25 25 23 23 22
7 9 10 12 11 7 7 7 7 6 7 6 6 8 6 7 8 7 8 10 13 14 12 5 9 6 5 8 7 6 8 7 6 7 7 8 8 8 8 8 7 12 19 21 23 24 24 23 23 26 25 24 26 24 24 24 22 22 22 23 22 20 20 23 24 23 24 25 27 27 27 26 23 23
9 9 10 10 9 9 11 11 8 7 6 7 7 7 7 7 8 8 7 9 10 11 13 8 7 7 7 8 6 6 6 6 7 7 7 5 7 7 7 9 9 9 16 20 22 23 24 24 24 24 25 24 25 26 25 23 23 22 22 21 22 22 20 21 22 23 23 25 28 28 26 25 24 24
10 10 10 11 9 8 10 10 10 8 8 8 7 8 8 7 7 7 7 9 9 11 13 12 6 7 7 7 6 4 6 7 7 7 8 7 7 7 6 6 7 8 15 18 20 21 23 24 24 25 25 25 26 27 26 25 23 22 22 22 21 23 23 20 19 19 20 23 24 27 26 26 25 24
9 10 11 11 10 9 10 11 10 10 10 9 8 9 9 8 7 8 8 8 9 10 12 11 11 6 8 8 8 5 6 7 8 8 7 5 5 6 6 8 7 6 7 8 10 14 18 21 24 24 25 27 25 26 27 27 26 22 22 22 21 21 22 22 22 22 21 21 22 24 26 25 25 25
10 10 10 11 11 11 11 11 11 11 11 10 11 10 10 8 8 9 9 8 9 10 11 11 9 9 7 7 11 6 6 8 8 9 7 8 5 6 8 9 6 6 8 9 13 12 11 13 14 19 23 28 25 26 27 28 27 24 22 22 22 21 23 24 24 25 24 21 22 21 21 22 25 25
12 12 11 11 11 11 11 11 11 10 10 9 10 10 9 8 9 9 9 8 8 10 10 10 11 7 8 6 6 3 0 5 7 5 6 11 11 8 7 9 9 7 8 9 8 10 12 12 15 17 18 23 25 25 24 25 24 25 22 21 22 23 24 25 26 26 23 22 22 22 21 20 21 25
12 11 11 11 11 12 15 16 16 15 13 11 11 11 9 9 10 10 9 9 9 9 9 11 9 9 9 8 7 6 7 9 12 4 7 11 10 5 6 8 9 8 8 7 6 8 8 9 9 10 12 14 20 22 25 20 25 24 23 22 23 25 26 26 26 25 24 23 22 22 23 22 21 21
11 10 11 11 17 20 20 20 22 24 24 23 17 13 11 10 11 11 11 11 10 9 11 11 11 11 11 10 7 8 9 8 6 6 5 10 9 5 8 10 7 7 7 7 8 9 6 8 10 10 12 12 13 12 14 14 16 20 26 27 27 26 25 27 26 26 25 25 28 26 24 23 21 21
12 11 10 10 14 16 16 17 23 23 24 24 26 27 26 20 15 12 13 12 10 11 11 11 11 11 13 13 8 8 8 7 8 10 9 9 9 8 8 13 4 7 10 9 7 10 7 9 11 11 12 12 11 12 14 18 21 22 24 28 29 30 27 28 28 26 27 26 27 28 27 25 25 25
11 12 11 11 9 10 12 14 13 17 22 25 25 25 24 25 26 24 17 14 13 12 12 13 13 11 13 13 9 7 6 7 7 8 9 9 10 10 10 10 12 3 11 7 9 12 7 9 11 12 12 11 10 12 14 20 21 23 23 26 30 32 29 28 28 27 29 28 27 29 28 27 28 28
12 10 11 10 11 10 22 18 14 14 14 18 24 26 26 26 26 25 26 27 19 13 14 14 16 14 13 14 12 9 8 4 8 7 9 9 10 10 11 12 11 2 8 9 9 12 8 9 11 13 12 9 9 11 15 21 22 24 26 30 32 32 31 31 30 28 30 30 29 30 30 29 29 29
15 15 13 13 13 12 12 12 12 11 12 12 12 13 12 12 14 21 25 26 31 25 17 15 16 16 13 15 13 10 5 8 9 8 10 8 10 10 13 13 11 4 9 10 8 9 7 8 9 12 11 7 9 10 14 22 24 25 27 29 32 30 31 32 30 28 29 30 31 31 31 31 30 29
12 13 14 15 17 17 15 13 17 17 15 14 14 15 15 15 16 16 16 15 13 14 14 15 17 17 16 15 15 13 8 11 11 10 11 10 10 11 10 10 9 6 7 7 7 13 9 6 8 12 8 4 8 10 13 22 24 26 27 27 28 29 31 31 29 31 29 32 32 32 32 31 31 30
13 13 13 13 14 14 14 17 23 20 16 15 16 17 16 14 13 14 16 23 22 19 16 15 15 16 16 17 15 13 11 10 10 9 8 6 7 8 10 12 7 10 7 10 10 9 11 6 10 10 4 7 9 9 8 15 25 25 26 27 27 31 30 30 30 31 28 32 30 33 31 31 30 29
13 13 13 14 15 15 14 19 23 24 22 15 15 14 14 13 13 15 15 23 28 29 30 31 32 33 34 33 32 30 29 19 11 8 9 12 9 11 11 12 10 11 6 7 10 10 12 6 7 7 3 7 9 8 8 9 16 23 25 26 27 30 29 30 33 29 31 32 30 32 32 32 29 27
12 13 22 19 16 16 16 22 25 25 20 15 14 14 16 18 15 13 11 11 15 26 32 33 33 32 31 32 32 31 31 32 21 12 15 13 11 13 11 14 12 9 7 7 11 8 12 6 3 4 2 3 4 6 7 7 8 16 20 25 26 27 30 31 29 29 29 29 29 30 30 30 26 18
12 14 15 23 22 20 21 25 23 24 20 15 14 12 13 14 15 14 14 13 15 15 15 14 16 18 23 21 18 17 28 29 23 16 15 12 13 12 13 14 10 10 10 10 13 10 8 11 5 7 1 7 5 5 6 8 8 8 8 11 15 25 29 29 29 31 30 30 29 28 29 29 26 13
12 13 13 16 20 22 24 25 26 26 26 18 14 12 13 16 17 10 11 12 13 14 14 15 16 16 15 14 14 14 15 16 16 17 16 14 13 13 14 13 12 13 10 5 14 11 8 9 5 8 10 8 7 1 6 6 7 7 8 8 9 14 22 23 23 30 31 30 30 30 28 28 26 12
10 8 8 9 19 27 28 28 28 27 26 24 17 13 12 13 17 21 16 18 23 16 15 14 14 15 15 15 15 15 14 14 13 14 15 15 15 15 14 14 13 13 13 7 16 10 10 7 8 6 7 7 9 3 1 6 5 7 8 9 8 8 8 11 10 13 19 28 30 30 28 28 30 20
9 12 15 11 18 27 27 27 28 28 27 27 17 16 25 29 30 21 16 14 12 10 12 12 13 13 13 13 15 15 15 14 14 14 14 15 16 16 15 15 14 13 13 9 21 12 9 7 8 9 5 7 8 7 3 2 4 6 7 7 9 8 8 8 9 11 10 10 14 19 21 29 26 28
12 11 12 13 23 28 29 28 28 28 30 24 18 27 27 27 29 24 12 10 9 9 10 12 12 14 13 14 14 13 13 14 14 14 13 14 15 15 15 15 14 14 11 6 13 12 11 9 6 10 9 9 10 5 6 7 3 4 5 7 8 8 8 8 10 10 10 10 11 20 23 26 28 29
10 11 13 16 26 28 29 29 28 27 26 19 27 27 28 28 26 15 12 11 11 11 12 13 13 13 13 13 15 14 14 14 13 13 13 14 14 14 13 14 14 14 13 8 11 13 12 11 8 9 12 10 10 10 9 6 3 6 8 7 6 7 8 9 9 9 9 9 9 10 10 12 14 17
13 19 29 32 30 29 29 30 29 23 23 27 27 27 27 25 12 11 10 10 10 11 13 12 13 13 13 13 15 15 16 16 14 12 12 11 12 12 13 13 12 13 11 9 10 13 12 11 11 8 9 9 10 10 10 7 7 7 7 7 6 8 8 8 8 9 9 9 10 11 12 12 12 13
33 32 31 33 32 27 23 16 12 11 12 21 26 27 25 13 11 10 11 10 11 13 12 13 13 13 11 12 13 15 16 17 16 13 12 10 11 11 11 11 11 11 11 11 10 12 12 10 11 10 9 9 10 11 10 8 6 5 8 9 7 3 5 8 10 9 9 9 10 10 9 10 11 11
17 19 21 17 22 22 27 27 24 23 22 17 14 11 10 10 11 11 11 11 13 13 12 13 12 13 12 12 12 14 14 15 16 15 12 11 11 11 11 11 11 11 11 10 10 11 11 11 11 11 10 10 10 11 9 8 8 6 7 8 8 9 7 10 7 9 9 9 8 8 8 9 8 11
14 13 15 18 12 11 11 11 9 9 10 11 11 11 10 11 11 13 19 20 14 13 12 12 12 13 13 13 14 13 13 14 15 15 15 13 11 11 10 11 12 10 9 8 7 8 10 10 10 9 10 10 11 9 8 7 9 8 8 9 9 8 5 9 11 10 9 7 7 9 10 9 10 8
10 8 8 8 8 8 9 8 8 9 9 9 10 12 11 10 11 10 10 11 12 12 12 12 14 14 11 14 12 14 14 15 13 14 15 13 12 10 10 12 12 10 10 9 8 7 5 4 0 2 6 8 9 9 8 9 10 8 8 8 9 9 7 7 10 10 8 8 9 9 9 7 7 8
9 7 6 7 8 9 8 9 10 10 10 11 11 10 12 12 10 11 10 10 11 12 11 13 12 13 12 13 13 12 13 13 12 14 15 13 12 11 11 11 11 10 10 9 7 8 6 4 3 2 3 2 3 3 7 10 10 9 8 8 10 10 9 7 8 8 10 12 12 10 8 7 7 6
7 8 8 8 8 8 8 9 10 10 10 11 11 12 11 10 12 13 12 11 11 13 13 12 13 11 13 13 13 12 12 13 13 15 15 14 12 12 12 12 11 10 10 9 8 7 8 7 6 4 1 1 3 5 4 6 9 10 7 8 9 10 8 6 8 8 9 9 7 10 9 9 8 7
8 7 8 8 8 8 9 10 10 11 11 11 10 10 11 12 12 11 12 11 12 12 13 12 12 11 11 12 12 13 12 13 13 14 12 12 11 11 11 11 11 10 9 9 7 7 8 8 8 9 10 7 7 8 10 12 12 8 9 9 8 7 6 6 7 7 8 9 9 10 11 11 10 8
10 9 9 9 8 8 9 10 10 11 11 11 11 10 11 12 10 11 13 15 12 11 11 11 10 11 11 12 12 13 12 13 14 15 11 9 10 10 10 10 10 10 9 9 8 9 8 9 8 8 9 11 10 13 11 3 6 7 5 8 6 6 7 7 7 8 9 10 10 11 11 10 9 8
10 11 11 11 10 10 10 10 11 12 12 12 12 12 11 12 12 13 12 10 10 9 10 9 9 10 9 11 11 11 9 12 14 14 12 10 10 10 11 10 9 8 8 6 7 8 8 9 9 10 10 11 11 9 10 3 1 4 7 6 6 6 7 8 9 10 9 8 9 9 6 5 5 4
9 10 11 11 11 11 12 13 12 12 12 13 12 11 12 13 13 12 11 10 9 8 9 9 9 9 10 10 10 10 11 11 9 8 8 10 11 10 9 9 8 7 7 6 6 7 7 8 10 10 11 10 12 11 7 5 8 6 9 16 9 9 8 10 10 8 7 8 7 2 3 3 7 10
9 9 10 10 10 10 10 10 10 11 11 12 12 13 13 14 14 12 11 10 8 8 9 10 11 11 10 10 10 10 10 11 10 7 5 4 5 8 9 8 9 7 7 8 8 8 8 9 9 8 7 8 2 1 2 3 3 3 3 10 16 9 8 8 9 9 8 7 7 7 7 6 6 6
9 9 9 9 9 10 11 11 11 11 12 13 13 14 14 13 14 13 10 10 9 9 9 9 10 10 10 10 10 10 10 9 7 6 4 5 5 5 7 7 7 7 9 8 9 8 10 9 7 7 5 5 6 5 5 3 2 2 4 4 12 13 8 8 7 8 8 8 9 10 9 9 10 7
9 10 10 9 10 9 9 10 10 11 11 12 12 12 13 14 13 19 16 14 12 11 10 10 10 9 9 9 9 8 8 8 7 6 5 5 5 6 6 6 7 6 8 8 9 10 6 6 8 7 7 7 6 7 8 8 6 4 4 3 1 9 9 8 5 4 6 9 10 7 5 4 3 4
9 9 10 10 9 9 9 10 10 10 11 12 12 12 12 13 12 12 12 12 11 10 10 10 10 10 10 9 8 7 6 7 6 6 5 5 6 7 8 8 7 7 8 6 4 5 6 6 6 7 6 7 7 7 8 5 5 6 5 5 5 3 3 8 10 10 9 10 6 4 5 7 9 10
9 9 9 9 10 10 10 10 10 10 10 11 11 11 10 11 12 11 10 11 11 11 12 11 10 10 10 9 8 7 6 6 6 6 6 5 6 7 7 7 8 8 8 7 7 6 6 6 6 7 7 7 6 6 6 6 6 6 7 5 4 6 5 4 6 9 10 12 10 11 10 7 4 4
9 9 9 10 10 10 10 10 9 10 10 10 10 11 11 11 11 11 10 10 10 11 10 10 9 9 9 8 6 7 6 5 5 5 5 5 5 6 6 7 5 5 6 7 8 8 6 6 5 5 4 4 3 4 3 5 6 6 5 6 7 6 5 5 7 7 6 4 6 10 8 9 12 13
Wind_Direction
324 322 315 303 300 300 304 299 285 278 281 269 266 262 264 271 276 288 290 281 282 267 207 236 271 217 228 231 230 229 225 230 224 218 216 222 227 222 225 230 232 233 233 232 227 222 224 223 217 217 216 216 220 224 227 229 230 234 244 249 236 233 232 231 232 226 224 226 232 227 224 223 223 228
322 311 313 304 298 291 297 293 292 290 280 277 265 257 257 249 260 273 279 284 273 288 260 237 267 256 241 238 243 224 232 232 226 219 216 222 228 224 224 227 230 232 233 232 229 226 223 219 218 217 219 220 221 223 226 225 223 226 235 247 252 232 228 230 228 223 223 213 228 230 224 221 220 223
323 315 312 306 297 291 293 294 293 283 278 273 270 265 247 250 243 258 267 277 275 183 276 259 237 256 263 242 260 270 253 244 230 225 221 227 229 229 229 229 231 232 232 232 232 229 229 227 221 220 220 223 224 225 225 225 222 222 226 235 243 238 228 229 225 216 219 218 226 228 226 223 222 224
316 314 309 300 295 295 296 292 287 285 275 267 271 266 262 259 243 243 253 257 272 259 281 280 290 255 267 269 255 262 264 249 240 231 228 233 234 233 233 230 227 230 231 230 231 230 228 229 228 229 226 223 227 228 227 225 224 223 223 227 233 226 206 196 198 208 219 217 224 224 223 221 221 221
312 301 296 295 291 290 285 280 283 282 277 273 262 260 264 263 254 245 252 261 275 272 218 269 263 275 259 282 217 249 254 260 247 233 232 233 230 230 228 229 229 228 229 230 229 230 228 227 227 229 230 224 225 227 227 227 226 225 223 223 227 223 219 212 212 219 220 221 222 225 223 220 219 220
319 319 312 296 285 281 276 277 275 272 277 271 270 263 251 258 260 233 252 265 269 280 262 273 264 271 200 263 173 228 247 253 245 240 234 229 228 231 230 230 231 227 229 229 230 230 230 229 227 227 230 231 224 223 226 226 226 226 224 223 225 226 216 216 212 211 222 222 221 223 222 219 218 217
296 300 302 304 305 303 290 274 267 271 268 264 262 264 251 256 257 249 239 260 272 277 280 240 271 250 247 229 248 224 243 245 243 248 242 229 229 228 227 231 238 230 231 232 232 232 231 231 230 230 227 227 231 226 222 224 224 225 227 225 222 227 217 218 220 218 223 223 223 223 221 219 217 217
293 287 288 285 289 298 299 295 288 274 268 267 264 263 259 251 259 251 249 245 260 277 282 269 252 264 251 261 244 245 253 251 256 239 253 240 240 232 222 225 232 231 233 234 235 234 232 231 230 229 228 226 227 231 227 222 221 222 225 226 224 222 226 226 225 223 223 223 222 223 222 221 218 217
287 285 279 282 284 282 282 285 287 285 278 271 270 268 266 260 258 256 246 254 253 267 271 278 258 258 261 263 265 224 246 257 247 251 244 237 239 239 235 232 230 228 231 234 234 236 235 234 232 230 227 225 227 228 230 228 222 220 221 224 225 223 222 223 222 224 221 223 223 223 222 221 221 220
280 280 281 282 280 277 273 276 278 282 282 280 270 268 268 264 261 262 257 252 257 258 266 269 281 255 264 271 263 231 220 247 259 258 251 249 240 239 245 233 229 221 223 224 231 235 237 237 235 233 231 230 226 229 229 230 228 220 218 220 223 223 222 220 219 223 224 219 222 223 223 222 221 221
278 273 273 276 277 275 272 272 272 276 278 281 280 275 273 268 267 266 262 257 258 260 268 271 259 270 251 244 269 252 211 239 240 256 270 265 232 222 229 246 227 224 236 237 232 231 230 235 237 236 234 233 230 228 230 229 229 227 219 218 219 220 221 220 220 221 222 220 221 224 224 223 223 222
283 283 280 274 271 269 270 273 273 271 274 273 275 277 278 278 274 270 271 268 261 263 266 266 276 256 266 255 250 291 5 275 267 229 239 256 252 230 226 228 234 218 221 231 229 232 234 236 239 241 239 235 231 230 228 226 225 224 222 219 216 217 218 220 220 220 220 221 220 222 222 220 226 224
281 277 277 280 280 275 272 264 266 266 263 269 275 272 272 273 273 274 273 270 268 267 265 272 267 271 265 253 251 249 236 238 253 234 196 247 255 252 244 238 220 219 217 229 232 231 217 229 229 230 234 233 230 230 227 226 223 220 220 219 218 217 218 219 220 220 218 219 220 221 220 218 220 223
277 276 278 278 279 282 284 285 284 283 280 274 269 270 269 268 269 268 269 270 267 266 268 265 270 270 264 260 237 236 237 242 259 262 227 248 257 237 254 259 225 198 207 220 231 232 207 213 231 225 232 233 226 229 226 223 218 216 217 219 221 218 217 220 220 220 219 217 219 219 220 218 217 218
287 285 282 282 287 287 287 288 289 287 285 283 281 279 276 273 266 266 267 264 262 264 262 265 264 262 267 263 246 235 242 231 223 236 236 246 256 245 246 263 251 178 185 215 236 246 199 197 226 227 228 229 221 225 228 223 220 217 216 218 222 223 218 219 221 220 222 219 217 218 216 213 214 215
288 290 290 288 284 282 287 289 287 284 285 287 286 284 280 277 273 269 266 268 268 259 260 262 260 260 258 267 255 238 230 233 225 231 237 238 243 250 246 251 257 191 186 191 219 247 198 187 221 233 230 226 221 225 224 222 221 218 215 218 222 224 222 218 216 217 222 221 219 219 217 214 215 213
289 290 290 291 285 284 288 287 285 287 288 287 286 285 284 281 277 274 271 268 266 266 261 259 263 254 261 263 258 238 236 202 225 221 235 234 239 242 249 251 256 189 185 189 222 243 219 178 217 232 232 221 219 230 227 223 222 221 221 222 222 224 224 223 219 216 220 221 220 220 217 214 214 213
301 299 299 294 290 285 280 277 279 277 277 279 279 281 280 280 276 275 271 269 267 265 264 262 260 260 253 256 264 256 224 224 228 222 235 224 237 237 242 249 255 185 184 190 208 253 229 191 212 238 240 203 218 224 220 221 222 221 221 222 224 224 225 225 222 220 219 219 219 220 219 217 214 213
289 291 293 294 294 296 296 295 294 293 292 291 289 285 281 277 276 273 270 263 260 260 258 259 261 264 262 261 259 263 239 234 238 229 231 224 228 238 249 259 255 233 195 202 199 249 248 150 206 239 232 169 217 227 222 222 222 223 223 223 223 225 226 226 224 223 220 220 219 219 219 218 216 214
296 293 290 287 285 281 280 286 288 286 282 276 275 273 272 271 267 265 264 268 267 264 258 254 255 257 261 261 260 258 251 245 247 248 250 244 236 239 246 250 242 240 195 192 205 243 255 164 205 241 185 178 221 223 216 225 226 226 225 225 224 225 225 226 226 225 222 222 220 220 219 218 217 215
300 301 302 303 303 303 304 304 302 299 296 293 286 280 278 275 272 272 274 276 279 278 274 271 268 267 265 264 262 260 258 253 234 232 235 237 225 231 240 246 242 241 190 195 201 228 252 208 203 242 154 195 222 218 211 216 227 228 228 227 227 228 226 226 226 224 225 223 221 221 219 217 215 213
296 297 299 301 299 296 293 295 292 291 289 277 271 270 272 273 268 265 268 270 269 270 272 273 274 273 271 268 265 263 261 258 250 225 232 231 226 233 228 243 238 243 214 198 190 210 239 239 173 221 262 242 237 219 207 201 210 223 232 231 230 230 229 228 227 225 224 222 221 221 218 218 213 210
296 295 295 293 293 291 291 293 295 297 299 295 292 284 274 270 268 271 276 275 276 276 274 271 268 263 262 264 264 263 261 258 253 243 237 229 228 230 229 235 241 249 236 211 176 203 230 232 187 192 197 247 233 195 198 200 198 202 210 227 233 232 231 230 229 227 226 225 221 220 219 218 213 205
278 274 271 275 288 291 292 292 293 293 291 289 288 293 292 291 288 300 289 274 269 268 266 266 266 268 268 265 259 257 255 253 247 242 238 234 227 226 231 230 223 232 235 209 161 196 228 221 209 195 212 238 256 180 211 192 199 194 203 213 223 230 232 233 233 231 229 226 223 221 218 218 213 204
271 270 279 284 289 291 290 290 290 289 288 287 283 278 273 275 283 288 283 283 285 285 283 274 267 263 259 258 256 253 251 246 242 240 236 233 228 223 226 228 225 234 232 205 169 184 217 202 214 190 225 215 246 239 274 214 199 193 198 204 219 225 222 231 232 233 232 229 226 220 218 216 216 210
284 288 289 278 285 291 292 291 290 289 289 286 283 277 279 282 284 283 280 281 282 277 283 286 286 283 274 263 254 249 247 244 240 238 235 233 230 225 223 223 222 228 230 196 175 189 201 228 193 201 199 205 240 231 202 222 212 199 194 196 210 212 210 221 227 232 226 221 224 222 218 216 216 214
280 278 279 277 283 288 290 289 288 286 286 286 284 287 289 290 291 293 293 290 286 288 287 284 279 279 278 279 274 264 254 245 238 238 234 234 232 231 229 226 225 229 230 184 177 188 205 220 178 195 206 203 222 214 208 227 228 175 200 202 207 202 206 207 222 224 224 219 220 219 219 218 217 218
276 280 277 275 278 282 285 291 297 299 300 297 295 294 292 291 291 291 290 288 284 283 280 276 277 274 273 274 273 270 265 257 242 237 235 233 232 233 233 229 227 226 226 197 180 195 204 213 209 200 202 202 209 216 231 220 157 174 195 207 202 204 202 209 214 218 216 216 213 212 206 210 213 214
274 277 282 285 289 296 300 300 300 301 298 293 291 289 287 288 285 282 273 275 275 273 273 273 273 271 270 270 272 277 276 269 254 239 233 228 227 228 229 230 226 224 223 203 186 199 206 207 217 201 202 207 214 221 222 225 173 201 182 174 203 207 205 204 210 212 209 205 207 206 208 207 206 206
287 288 288 291 294 295 292 290 278 265 271 279 287 291 294 297 291 287 284 277 275 271 273 272 271 271 273 271 274 278 282 279 262 242 231 222 223 218 222 225 228 224 221 213 197 204 207 209 213 207 200 211 215 224 219 218 204 188 184 193 198 188 209 203 208 210 202 205 204 203 205 206 206 200
279 277 278 274 275 278 283 287 289 290 291 292 289 281 273 268 265 265 265 266 265 266 263 265 263 268 269 272 269 266 265 266 266 255 234 222 221 212 215 217 224 218 218 214 208 204 209 210 212 206 206 211 219 222 222 212 221 178 194 194 178 192 198 201 200 205 203 202 197 196 200 202 204 204
269 270 271 275 275 277 276 276 270 269 272 273 275 270 267 263 260 258 261 264 261 258 259 260 265 268 270 267 267 266 262 264 267 259 241 221 218 210 206 212 215 215 210 203 211 212 210 210 211 211 210 209 215 220 219 218 221 206 191 194 203 216 185 186 196 206 199 180 189 202 203 198 197 195
270 244 262 258 270 262 267 267 269 271 272 272 272 275 275 273 271 267 259 256 255 256 258 260 262 264 262 265 263 262 256 254 256 256 244 222 213 204 203 212 210 209 208 200 200 203 197 211 306 233 227 222 219 213 207 216 224 216 190 195 199 211 202 198 199 196 180 183 202 200 203 198 198 196
317 312 305 301 297 296 302 297 293 291 288 285 282 278 277 276 271 265 259 253 257 255 255 258 261 262 264 262 262 259 258 259 257 252 236 223 204 201 202 208 211 209 208 205 186 191 182 171 131 68 43 36 21 222 215 215 224 217 199 191 198 208 210 185 201 196 188 193 192 198 197 201 200 189
329 322 315 306 301 298 298 294 291 288 286 284 283 284 282 273 272 272 266 261 258 259 260 260 261 265 270 271 272 270 268 268 266 260 234 214 200 201 201 205 208 205 202 201 182 179 170 168 159 143 72 12 248 266 255 236 222 221 199 203 201 205 201 177 186 193 194 203 203 203 202 202 199 189
326 322 311 304 301 301 295 292 292 292 288 287 284 284 286 286 282 272 270 265 260 260 260 259 259 260 265 271 274 274 271 267 266 257 224 203 196 197 200 204 206 206 199 200 176 167 161 170 165 158 166 194 197 226 236 215 209 228 207 211 203 194 181 169 181 187 192 200 203 197 202 202 199 189
325 321 313 306 305 305 303 303 304 299 294 294 292 291 288 288 280 273 268 270 265 261 259 259 261 263 261 264 266 268 267 269 268 253 225 205 194 194 198 204 202 203 197 196 167 163 164 169 178 181 173 160 188 209 227 80 214 225 228 214 195 180 175 161 164 188 201 199 202 203 207 200 194 184
330 328 323 321 322 322 316 313 309 305 305 305 302 297 291 286 285 281 276 272 269 265 264 261 260 263 263 266 269 268 269 272 271 245 219 205 197 197 199 200 200 197 196 169 149 166 170 170 178 191 194 196 199 215 224 186 21 256 209 202 188 173 165 161 181 192 198 196 203 211 208 205 178 157
332 325 323 321 321 322 317 313 311 309 307 305 300 297 297 297 292 287 284 278 272 266 264 260 255 253 256 259 259 265 272 276 279 273 232 201 192 193 191 193 194 188 169 148 158 161 168 184 189 193 199 205 214 219 212 175 217 207 195 199 181 173 180 182 191 191 179 181 189 157 43 83 88 125
326 323 317 316 311 310 305 306 304 302 301 301 301 302 303 303 299 295 289 283 274 265 263 261 264 265 263 263 265 266 264 264 264 251 250 235 207 192 189 188 192 176 167 164 161 171 181 194 195 199 204 217 241 33 129 126 63 71 152 209 206 192 192 180 187 179 180 178 155 144 146 137 131 158
323 318 312 306 300 302 306 305 302 301 303 307 310 310 309 305 306 300 289 279 272 270 266 263 259 262 264 267 268 268 266 262 256 247 219 196 197 201 201 187 189 169 173 179 180 179 195 199 183 174 148 114 132 111 81 98 156 131 167 207 206 201 188 197 187 182 170 164 160 163 163 164 163 159
317 314 310 307 305 303 302 300 303 305 305 309 311 309 309 310 307 317 313 296 286 277 272 271 267 261 262 265 266 259 257 257 258 251 233 203 191 194 197 189 188 176 185 190 188 198 181 137 153 147 135 145 146 172 204 205 191 159 158 148 165 200 188 189 177 167 163 156 148 140 88 55 52 109
316 312 310 309 306 303 303 304 305 306 306 308 308 312 314 310 313 323 330 327 322 312 299 291 286 283 278 274 271 265 254 256 256 249 229 216 209 199 195 192 193 179 189 187 140 117 119 134 126 140 157 163 191 192 212 188 151 146 145 146 147 114 137 170 152 145 148 160 146 121 157 163 163 184
316 314 309 308 308 308 307 307 306 305 307 307 308 311 315 315 319 322 327 331 332 332 329 322 315 306 297 287 278 268 254 252 242 243 235 218 201 199 201 203 196 184 175 153 138 140 135 141 153 151 161 186 179 183 189 137 150 155 155 143 127 137 143 121 137 153 153 159 125 101 94 81 49 25
314 313 311 311 309 308 305 306 309 310 311 311 312 316 318 322 318 319 324 327 326 324 322 320 318 318 318 310 295 270 258 260 254 242 232 215 202 192 189 185 180 155 143 141 132 122 135 134 135 143 150 147 138 156 127 134 139 132 133 137 136 126 120 129 130 112 102 77 146 145 125 111 93 109